• In Schweiz
  • Länderverzeichnis
  • Für 7 Tage
  • Wassertemperatur
  • Satellitenkarten
  • Wetterkarte
  • Widgets
  • user-avatar
    Anmelden

    Stündliche Wetter Darwin

    Heute, 20 August, Montag

    Zeit Temperatur Niederschläge Wind Luftdruck Luftfeuchtigkeit
    00:00 +28°C° 0 mm 3 m/S 761 mmHg 48%
    01:00 +27°C° 0 mm 4 m/S 761 mmHg 43%
    02:00 +26°C° 0 mm 5 m/S 761 mmHg 37%
    03:00 +25°C° 0 mm 5 m/S 761 mmHg 32%
    04:00 +23°C° 0 mm 6 m/S 761 mmHg 31%
    05:00 +23°C° 0 mm 6 m/S 761 mmHg 30%
    06:00 +22°C° 0 mm 7 m/S 761 mmHg 28%
    07:00 +24°C° 0 mm 7 m/S 761 mmHg 26%
    08:00 +27°C° 0 mm 8 m/S 761 mmHg 24%
    09:00 +28°C° 0 mm 8 m/S 762 mmHg 22%
    10:00 +31°C° 0 mm 8 m/S 761 mmHg 19%
    11:00 +33°C° 0 mm 7 m/S 761 mmHg 17%
    12:00 +35°C° 0 mm 6 m/S 760 mmHg 14%
    13:00 +36°C° 0 mm 5 m/S 760 mmHg 15%
    14:00 +36°C° 0 mm 5 m/S 759 mmHg 15%
    15:00 +37°C° 0 mm 4 m/S 759 mmHg 16%
    16:00 +35°C° 0 mm 4 m/S 759 mmHg 18%
    17:00 +34°C° 0 mm 3 m/S 758 mmHg 21%
    18:00 +31°C° 0 mm 3 m/S 758 mmHg 24%
    19:00 +30°C° 0 mm 3 m/S 759 mmHg 27%
    20:00 +28°C° 0 mm 2 m/S 759 mmHg 29%
    21:00 +27°C° 0 mm 2 m/S 760 mmHg 32%
    22:00 +26°C° 0 mm 2 m/S 760 mmHg 31%
    23:00 +25°C° 0 mm 2 m/S 760 mmHg 31%

    Morgen, 21 August, Dienstag

    Zeit Temperatur Niederschläge Wind Luftdruck Luftfeuchtigkeit
    00:00 +25°C° 0 mm 3 m/S 760 mmHg 30%
    01:00 +24°C° 0 mm 3 m/S 760 mmHg 34%
    02:00 +23°C° 0 mm 4 m/S 760 mmHg 38%
    03:00 +22°C° 0 mm 5 m/S 760 mmHg 43%
    04:00 +22°C° 0 mm 5 m/S 760 mmHg 46%
    05:00 +21°C° 0 mm 5 m/S 760 mmHg 50%
    06:00 +21°C° 0 mm 5 m/S 760 mmHg 54%
    07:00 +22°C° 0 mm 5 m/S 760 mmHg 51%
    08:00 +25°C° 0 mm 5 m/S 761 mmHg 48%
    09:00 +27°C° 0 mm 5 m/S 761 mmHg 44%
    10:00 +29°C° 0 mm 5 m/S 760 mmHg 39%
    11:00 +33°C° 0 mm 4 m/S 760 mmHg 34%
    12:00 +35°C° 0 mm 4 m/S 759 mmHg 29%
    13:00 +36°C° 0 mm 4 m/S 759 mmHg 28%
    14:00 +36°C° 0 mm 4 m/S 758 mmHg 28%
    15:00 +37°C° 0 mm 5 m/S 757 mmHg 27%
    16:00 +35°C° 0 mm 4 m/S 757 mmHg 31%
    17:00 +33°C° 0 mm 4 m/S 757 mmHg 36%
    18:00 +32°C° 0 mm 4 m/S 757 mmHg 40%
    19:00 +29°C° 0 mm 3 m/S 758 mmHg 46%
    20:00 +28°C° 0 mm 3 m/S 758 mmHg 53%
    21:00 +26°C° 0 mm 2 m/S 759 mmHg 60%
    22:00 +26°C° 0 mm 2 m/S 759 mmHg 63%
    23:00 +26°C° 0 mm 1 m/S 759 mmHg 66%

    übermorgen, 22 August, Mittwoch

    Zeit Temperatur Niederschläge Wind Luftdruck Luftfeuchtigkeit
    00:00 +25°C° 0 mm 1 m/S 760 mmHg 69%
    01:00 +25°C° 0 mm 1 m/S 759 mmHg 70%
    02:00 +25°C° 0 mm 1 m/S 759 mmHg 70%
    03:00 +24°C° 0 mm 2 m/S 759 mmHg 71%
    04:00 +24°C° 0,1 mm 2 m/S 759 mmHg 72%
    05:00 +24°C° 0,1 mm 2 m/S 759 mmHg 74%
    06:00 +24°C° 0,1 mm 3 m/S 759 mmHg 76%
    07:00 +26°C° 0,1 mm 3 m/S 760 mmHg 68%
    08:00 +27°C° 0,1 mm 4 m/S 760 mmHg 61%
    09:00 +29°C° 0,1 mm 4 m/S 760 mmHg 53%
    10:00 +32°C° 0 mm 4 m/S 760 mmHg 46%
    11:00 +34°C° 0 mm 4 m/S 760 mmHg 39%
    12:00 +36°C° 0 mm 3 m/S 759 mmHg 32%
    13:00 +37°C° 0 mm 4 m/S 758 mmHg 32%
    14:00 +37°C° 0 mm 4 m/S 758 mmHg 31%
    15:00 +37°C° 0 mm 4 m/S 757 mmHg 31%
    16:00 +36°C° 0 mm 4 m/S 757 mmHg 36%
    17:00 +34°C° 0 mm 3 m/S 757 mmHg 41%
    18:00 +31°C° 0 mm 3 m/S 757 mmHg 46%
    19:00 +30°C° 0 mm 3 m/S 758 mmHg 52%
    20:00 +29°C° 0 mm 3 m/S 759 mmHg 59%
    21:00 +27°C° 0 mm 2 m/S 759 mmHg 65%
    22:00 +27°C° 0 mm 2 m/S 759 mmHg 68%
    23:00 +27°C° 0 mm 2 m/S 760 mmHg 71%

    23 August, Donnerstag

    Zeit Temperatur Niederschläge Wind Luftdruck Luftfeuchtigkeit
    00:00 +26°C° 0 mm 2 m/S 760 mmHg 75%
    01:00 +26°C° 0 mm 1 m/S 759 mmHg 76%
    02:00 +26°C° 0 mm 1 m/S 759 mmHg 77%
    03:00 +26°C° 0 mm 1 m/S 759 mmHg 78%
    04:00 +25°C° 0,1 mm 1 m/S 759 mmHg 80%
    05:00 +25°C° 0,1 mm 2 m/S 759 mmHg 81%
    06:00 +25°C° 0,1 mm 2 m/S 759 mmHg 83%
    07:00 +26°C° 0,2 mm 2 m/S 760 mmHg 74%
    08:00 +28°C° 0,2 mm 3 m/S 760 mmHg 66%
    09:00 +30°C° 0,2 mm 3 m/S 761 mmHg 57%
    10:00 +33°C° 0 mm 3 m/S 760 mmHg 50%
    11:00 +35°C° 0 mm 3 m/S 760 mmHg 43%
    12:00 +37°C° 0 mm 3 m/S 759 mmHg 36%
    13:00 +37°C° 0 mm 3 m/S 759 mmHg 37%
    14:00 +36°C° 0 mm 3 m/S 758 mmHg 39%
    15:00 +35°C° 0 mm 3 m/S 757 mmHg 41%
    16:00 +34°C° 0 mm 3 m/S 757 mmHg 44%
    17:00 +33°C° 0 mm 3 m/S 757 mmHg 47%
    18:00 +31°C° 0 mm 2 m/S 757 mmHg 50%
    19:00 +30°C° 0 mm 3 m/S 758 mmHg 56%
    20:00 +29°C° 0 mm 3 m/S 759 mmHg 62%
    21:00 +28°C° 0 mm 3 m/S 759 mmHg 67%
    22:00 +27°C° 0 mm 3 m/S 759 mmHg 70%
    23:00 +27°C° 0 mm 3 m/S 759 mmHg 73%

    24 August, Freitag

    Zeit Temperatur Niederschläge Wind Luftdruck Luftfeuchtigkeit
    00:00 +26°C° 0 mm 2 m/S 759 mmHg 76%
    01:00 +26°C° 0 mm 2 m/S 759 mmHg 77%
    02:00 +26°C° 0 mm 1 m/S 758 mmHg 79%
    03:00 +25°C° 0 mm 1 m/S 758 mmHg 80%
    04:00 +25°C° 0 mm 1 m/S 758 mmHg 82%
    05:00 +25°C° 0 mm 1 m/S 758 mmHg 83%
    06:00 +25°C° 0 mm 2 m/S 759 mmHg 85%
    07:00 +27°C° 0,1 mm 2 m/S 759 mmHg 76%
    08:00 +29°C° 0,1 mm 2 m/S 759 mmHg 67%
    09:00 +30°C° 0,1 mm 2 m/S 760 mmHg 58%
    10:00 +32°C° 0 mm 2 m/S 759 mmHg 51%
    11:00 +35°C° 0 mm 2 m/S 759 mmHg 45%
    12:00 +37°C° 0 mm 3 m/S 758 mmHg 38%
    13:00 +37°C° 0 mm 3 m/S 757 mmHg 39%
    14:00 +36°C° 0 mm 3 m/S 757 mmHg 40%
    15:00 +36°C° 0 mm 3 m/S 756 mmHg 40%
    16:00 +35°C° 0 mm 3 m/S 756 mmHg 44%
    17:00 +34°C° 0 mm 3 m/S 756 mmHg 49%
    18:00 +31°C° 0 mm 3 m/S 757 mmHg 53%
    19:00 +30°C° 0 mm 3 m/S 757 mmHg 59%
    20:00 +29°C° 0 mm 3 m/S 758 mmHg 65%
    21:00 +28°C° 0 mm 4 m/S 758 mmHg 72%
    22:00 +27°C° 0 mm 3 m/S 758 mmHg 74%
    23:00 +27°C° 0 mm 3 m/S 758 mmHg 76%

    25 August, Samstag

    Zeit Temperatur Niederschläge Wind Luftdruck Luftfeuchtigkeit
    00:00 +27°C° 0 mm 3 m/S 758 mmHg 78%
    01:00 +26°C° 0,2 mm 2 m/S 758 mmHg 79%
    02:00 +26°C° 0,2 mm 1 m/S 758 mmHg 80%
    03:00 +26°C° 0,2 mm 1 m/S 758 mmHg 82%
    04:00 +26°C° 0,7 mm 2 m/S 758 mmHg 81%
    05:00 +26°C° 0,7 mm 2 m/S 758 mmHg 81%
    06:00 +25°C° 0,7 mm 3 m/S 758 mmHg 81%
    07:00 +27°C° 0,1 mm 3 m/S 759 mmHg 72%
    08:00 +29°C° 0,1 mm 3 m/S 759 mmHg 64%
    09:00 +30°C° 0,1 mm 3 m/S 759 mmHg 55%
    10:00 +33°C° 0 mm 3 m/S 759 mmHg 49%
    11:00 +35°C° 0 mm 3 m/S 758 mmHg 42%
    12:00 +36°C° 0 mm 3 m/S 758 mmHg 36%
    13:00 +36°C° 0 mm 3 m/S 757 mmHg 36%
    14:00 +36°C° 0 mm 3 m/S 757 mmHg 37%
    15:00 +35°C° 0 mm 3 m/S 756 mmHg 37%
    16:00 +35°C° 0 mm 3 m/S 757 mmHg 38%
    17:00 +34°C° 0 mm 2 m/S 757 mmHg 39%
    18:00 +32°C° 0 mm 2 m/S 757 mmHg 41%
    19:00 +31°C° 0 mm 2 m/S 758 mmHg 45%
    20:00 +30°C° 0 mm 3 m/S 758 mmHg 50%
    21:00 +28°C° 0 mm 3 m/S 759 mmHg 55%
    22:00 +28°C° 0 mm 3 m/S 759 mmHg 60%
    23:00 +27°C° 0 mm 2 m/S 759 mmHg 66%
    Mehr zeigen